ARIANE 2 DEB, 28567

Orbit data source: Space-Track

ARIANE 2 DEB, 28567 is space debris in HEO originally from a launch on Fri, 27 Jan 1989 UTC launched from the French Guiana (FRGUI). Debris objects in space refer to the collection of defunct objects orbiting the Earth. Examples of debris include non-operational satellites, rocket bodies, and fragments generated from explosions, collisions, or faulty payload assembly.

Loading next visibility...
Identifier
28567, 1989-006AJ
Orbit
HEO
Country
Flag of FRFR
Related business
Manufacturer
EADS/LV
Mission
Spacecraft
Bus & Motor
Unknown
Mass
Unknown
Launch date (UTC)
1989-01-27 (37 years ago)
Launch vehicle
Unknown
Launch site
French Guiana (FRGUI)
Object type
Payload
Rocket body
Debris
Shape & HBR
Unknown
Radar Cross Section
Medium (>0.1 m² and <1 m²)

Expand to show TLE details & history
Last TLE update: 2 days ago

TLE from 2 days ago
0 ARIANE 2 DEB
1 28567U 89006AJ  25240.91130959  .00000939  00000-0  64117-2 0  9993
2 28567   7.8900  83.1384 7102466  70.8054 349.4640  2.37876640113526
Epoch: 2025-08-28T21:52Z
TLE epoch observation values (Epoch: 2025-08-28T21:52:17.148Z)
Latitude
-0.00005°
Longitude
137.95791°
Altitude
3,093.596 km
Speed
8.206 km/s
True Right ascension
05h 33m 35s
True Declination
0° 00' 00"
Sunlit
Object was in daylight at epoch
Visualization orbit readout
Latitude
Unknown
Longitude
Unknown
Altitude
Unknown
Speed
Unknown
Apparent Right ascension
Unknown
Apparent Declination
Unknown
Sunlit
N/A
Visualization observer readout
Local Sidereal Time
08:04:03
Azimuth
Unknown
Elevation
Unknown
Doppler factor
Unknown
Orbital elements
Apogee altitude
34,171.578 km
Perigee altitude
491.877 km
Semi-major axis
23,709.864 km
Eccentricity
0.71025
Inclination
7.89°
RAAN
83.1384°
Arg. of periapsis
70.8054°
True anomaly
289.82844°
Mean anomaly
349.464°
Eccentric anomaly
327.74755°
Mean motion
0.5945 °/min
Orbital period
605.55 mins
BSTAR
0.0064117
Loading maneuver chart data...
Computing Atmospheric mass density...
Loading historical data...
Loading historical data...
Loading historical data...
Loading historical data...
Loading historical data...
Loading historical data...
Loading historical data...

Documentation

Showing up to 5 results
|